ACO189 SKBG-SKBO

Flight info

Callsign ACO189
Flight time 0h 39m
Altitude 22000
Route EJA2F EJA G431 GEPSO A567 VULAM VULAM7D
Aircraft A320/M-SDE3FGHIRWY/LB1

Departure

Time 2026-04-25 02:55
Airport Palonegro Airport (SKBG)

Arrival

Time 2026-04-25 03:34
Airport El Dorado International Airport (SKBO)
Time Latitude Longitude Altitude Speed Heading
2026-04-25 02:25 7.12730 -73.18228 3900 ft 0 kts 11°
2026-04-25 02:43 7.12727 -73.18229 3900 ft 1 kts 11°
2026-04-25 02:44 7.12710 -73.18231 3899 ft 3 kts 354°
2026-04-25 02:44 7.12692 -73.18227 3898 ft 3 kts 326°
2026-04-25 02:44 7.12678 -73.18214 3897 ft 3 kts 290°
2026-04-25 02:44 7.12676 -73.18207 3898 ft 1 kts 280°
2026-04-25 02:47 7.12676 -73.18206 3898 ft 0 kts 280°
2026-04-25 02:47 7.12678 -73.18217 3897 ft 6 kts 279°
2026-04-25 02:47 7.12680 -73.18229 3897 ft 3 kts 278°
2026-04-25 02:48 7.12681 -73.18286 3898 ft 6 kts 256°
2026-04-25 02:48 7.12679 -73.18296 3900 ft 0 kts 258°
2026-04-25 02:48 7.12679 -73.18292 3899 ft 0 kts 258°
2026-04-25 02:48 7.12683 -73.18355 3901 ft 12 kts 280°
2026-04-25 02:49 7.12687 -73.18377 3903 ft 1 kts 289°
2026-04-25 02:49 7.12666 -73.18377 3902 ft 12 kts 159°
2026-04-25 02:49 7.12618 -73.18357 3901 ft 7 kts 168°
2026-04-25 02:49 7.12521 -73.18322 3898 ft 20 kts 158°
2026-04-25 02:50 7.12394 -73.18274 3892 ft 19 kts 160°
2026-04-25 02:50 7.12277 -73.18227 3887 ft 17 kts 157°
2026-04-25 02:50 7.12177 -73.18190 3883 ft 13 kts 155°
2026-04-25 02:50 7.12096 -73.18157 3880 ft 11 kts 159°
2026-04-25 02:51 7.12039 -73.18135 3877 ft 5 kts 159°
2026-04-25 02:51 7.12035 -73.18133 3876 ft 1 kts 160°
2026-04-25 02:51 7.11964 -73.18111 3871 ft 15 kts 163°
2026-04-25 02:51 7.11873 -73.18086 3869 ft 7 kts 175°
2026-04-25 02:52 7.11872 -73.18086 3867 ft 1 kts 175°
2026-04-25 02:52 7.11874 -73.18086 3869 ft 0 kts 175°
2026-04-25 02:52 7.11875 -73.18086 3869 ft 0 kts 175°
2026-04-25 02:53 7.11813 -73.18082 3862 ft 9 kts 176°
2026-04-25 02:53 7.11783 -73.18080 3860 ft 5 kts 176°
2026-04-25 02:54 7.11736 -73.18080 3855 ft 3 kts 198°
2026-04-25 02:54 7.11723 -73.18094 3850 ft 10 kts 237°
2026-04-25 02:54 7.11778 -73.18147 3863 ft 23 kts 341°
2026-04-25 02:54 7.12121 -73.18277 3882 ft 79 kts 340°
2026-04-25 02:55 7.12784 -73.18526 3906 ft 122 kts 339°
2026-04-25 02:55 7.13687 -73.18870 3934 ft 153 kts 339°
2026-04-25 02:55 7.14682 -73.19248 4330 ft 151 kts 339°
2026-04-25 02:55 7.15677 -73.19626 4692 ft 154 kts 339°
2026-04-25 02:56 7.16672 -73.19998 4947 ft 158 kts 340°
2026-04-25 02:56 7.17721 -73.20388 5100 ft 161 kts 339°
2026-04-25 02:56 7.18760 -73.20797 5255 ft 166 kts 339°
2026-04-25 02:56 7.19868 -73.21217 5392 ft 174 kts 340°
2026-04-25 02:57 7.21020 -73.21651 5541 ft 179 kts 340°
2026-04-25 02:57 7.22211 -73.22099 5655 ft 187 kts 340°
2026-04-25 02:57 7.23401 -73.22678 5768 ft 195 kts 316°
2026-04-25 02:57 7.23962 -73.23898 5892 ft 200 kts 269°
2026-04-25 02:58 7.23454 -73.25177 6018 ft 204 kts 225°
2026-04-25 02:58 7.22313 -73.26063 6103 ft 215 kts 215°
2026-04-25 02:58 7.21303 -73.27172 6237 ft 224 kts 241°
2026-04-25 02:58 7.20709 -73.28660 6366 ft 236 kts 251°
2026-04-25 02:59 7.20161 -73.30260 6495 ft 249 kts 251°
2026-04-25 02:59 7.19577 -73.31957 6606 ft 264 kts 251°
2026-04-25 02:59 7.18961 -73.33747 6742 ft 278 kts 251°
2026-04-25 02:59 7.18318 -73.35612 7091 ft 284 kts 251°
2026-04-25 03:00 7.17667 -73.37501 7468 ft 287 kts 251°
2026-04-25 03:00 7.17013 -73.39399 7870 ft 288 kts 251°
2026-04-25 03:00 7.16355 -73.41308 8290 ft 289 kts 251°
2026-04-25 03:00 7.15701 -73.43202 8703 ft 291 kts 251°
2026-04-25 03:01 7.15038 -73.45128 9093 ft 291 kts 251°
2026-04-25 03:01 7.14374 -73.47063 9511 ft 293 kts 251°
2026-04-25 03:01 7.14015 -73.48111 9704 ft 294 kts 251°
2026-04-25 03:02 7.13578 -73.49388 9956 ft 296 kts 251°
2026-04-25 03:02 7.12892 -73.51385 10059 ft 308 kts 251°
2026-04-25 03:02 7.12181 -73.53460 10167 ft 318 kts 251°
2026-04-25 03:02 7.11445 -73.55605 10281 ft 328 kts 251°
2026-04-25 03:03 7.10702 -73.57775 10396 ft 336 kts 251°
2026-04-25 03:03 7.09931 -73.60023 10513 ft 344 kts 251°
2026-04-25 03:03 7.09875 -73.60185 10520 ft 345 kts 251°
2026-04-25 03:03 7.09581 -73.61040 10576 ft 347 kts 251°
2026-04-25 03:04 7.09306 -73.61837 10640 ft 349 kts 251°
2026-04-25 03:04 7.08507 -73.64158 10863 ft 352 kts 251°
2026-04-25 03:04 7.07709 -73.66489 11098 ft 353 kts 251°
2026-04-25 03:05 7.06094 -73.71176 11585 ft 356 kts 251°
2026-04-25 03:05 7.05281 -73.73530 11812 ft 357 kts 251°
2026-04-25 03:05 7.04342 -73.75814 12018 ft 360 kts 242°
2026-04-25 03:05 7.02939 -73.77892 12148 ft 361 kts 230°
2026-04-25 03:06 7.01111 -73.79626 12398 ft 364 kts 217°
2026-04-25 03:06 6.99873 -73.80451 12547 ft 364 kts 210°
2026-04-25 03:07 6.97740 -73.81419 12694 ft 366 kts 198°
2026-04-25 03:07 6.95254 -73.81992 12951 ft 368 kts 191°
2026-04-25 03:07 6.92730 -73.82458 13171 ft 369 kts 191°
2026-04-25 03:08 6.90204 -73.82927 13356 ft 370 kts 191°
2026-04-25 03:08 6.87708 -73.83394 13618 ft 372 kts 191°
2026-04-25 03:08 6.85154 -73.83872 13889 ft 373 kts 191°
2026-04-25 03:08 6.82593 -73.84351 14110 ft 374 kts 191°
2026-04-25 03:09 6.80032 -73.84830 14287 ft 375 kts 191°
2026-04-25 03:09 6.77463 -73.85309 14486 ft 376 kts 191°
2026-04-25 03:09 6.74885 -73.85789 14695 ft 376 kts 191°
2026-04-25 03:09 6.72301 -73.86271 14928 ft 380 kts 191°
2026-04-25 03:10 6.69694 -73.86759 15463 ft 382 kts 191°
2026-04-25 03:10 6.67071 -73.87252 15940 ft 384 kts 191°
2026-04-25 03:10 6.64436 -73.87750 16387 ft 387 kts 191°
2026-04-25 03:10 6.61783 -73.88248 16829 ft 389 kts 191°
2026-04-25 03:11 6.59147 -73.88741 17290 ft 392 kts 191°
2026-04-25 03:11 6.56461 -73.89243 17767 ft 394 kts 191°
2026-04-25 03:11 6.53758 -73.89749 18229 ft 396 kts 191°
2026-04-25 03:11 6.51044 -73.90258 18616 ft 399 kts 191°
2026-04-25 03:12 6.48309 -73.90770 18982 ft 401 kts 191°
2026-04-25 03:12 6.45556 -73.91286 19355 ft 404 kts 191°
2026-04-25 03:12 6.42788 -73.91805 19771 ft 406 kts 191°
2026-04-25 03:12 6.40044 -73.92317 20146 ft 408 kts 191°
2026-04-25 03:13 6.37247 -73.92838 20540 ft 409 kts 191°
2026-04-25 03:13 6.34437 -73.93360 20876 ft 412 kts 191°
2026-04-25 03:13 6.31604 -73.93887 21208 ft 415 kts 191°
2026-04-25 03:13 6.28759 -73.94417 21604 ft 417 kts 191°
2026-04-25 03:14 6.25895 -73.94952 21955 ft 420 kts 191°
2026-04-25 03:14 6.23012 -73.95491 22058 ft 423 kts 191°
2026-04-25 03:14 6.20106 -73.96034 22085 ft 427 kts 191°
2026-04-25 03:14 6.17181 -73.96579 22082 ft 428 kts 191°
2026-04-25 03:15 6.14252 -73.97127 22122 ft 428 kts 191°
2026-04-25 03:15 6.11363 -73.97668 22123 ft 428 kts 191°
2026-04-25 03:15 6.08436 -73.98217 22122 ft 428 kts 191°
2026-04-25 03:15 6.05505 -73.98766 22122 ft 428 kts 191°
2026-04-25 03:16 6.02576 -73.99315 22119 ft 428 kts 191°
2026-04-25 03:16 5.99648 -73.99864 22157 ft 428 kts 191°
2026-04-25 03:16 5.96715 -74.00410 22163 ft 429 kts 191°
2026-04-25 03:16 5.93785 -74.00955 22166 ft 429 kts 191°
2026-04-25 03:17 5.90847 -74.01499 22163 ft 429 kts 191°
2026-04-25 03:17 5.87919 -74.02043 22164 ft 428 kts 191°
2026-04-25 03:17 5.84988 -74.02589 22191 ft 428 kts 191°
2026-04-25 03:17 5.82060 -74.03137 22190 ft 428 kts 191°
2026-04-25 03:18 5.79134 -74.03685 22191 ft 428 kts 191°
2026-04-25 03:18 5.76251 -74.04225 22188 ft 428 kts 192°
2026-04-25 03:18 5.73326 -74.04771 22190 ft 428 kts 191°
2026-04-25 03:18 5.70397 -74.05316 22222 ft 428 kts 191°
2026-04-25 03:19 5.67472 -74.05861 22220 ft 428 kts 192°
2026-04-25 03:19 5.64574 -74.06401 22012 ft 418 kts 192°
2026-04-25 03:19 5.61738 -74.06929 21760 ft 412 kts 191°
2026-04-25 03:19 5.58930 -74.07451 21512 ft 410 kts 192°
2026-04-25 03:20 5.56145 -74.07969 21201 ft 403 kts 191°
2026-04-25 03:20 5.53440 -74.08471 20732 ft 398 kts 191°
2026-04-25 03:20 5.50728 -74.08975 20247 ft 394 kts 191°
2026-04-25 03:20 5.48045 -74.09476 19769 ft 390 kts 192°
2026-04-25 03:21 5.45470 -74.10251 19282 ft 385 kts 205°
2026-04-25 03:21 5.43166 -74.11577 18796 ft 380 kts 218°
2026-04-25 03:21 5.41237 -74.13362 18287 ft 376 kts 230°
2026-04-25 03:21 5.39738 -74.15524 17417 ft 380 kts 244°
2026-04-25 03:22 5.38647 -74.17916 16902 ft 375 kts 246°
2026-04-25 03:22 5.37578 -74.20290 16400 ft 372 kts 246°
2026-04-25 03:22 5.36507 -74.22642 15864 ft 369 kts 246°
2026-04-25 03:22 5.35456 -74.24935 15371 ft 365 kts 246°
2026-04-25 03:23 5.34398 -74.27239 14870 ft 362 kts 246°
2026-04-25 03:23 5.33351 -74.29524 14421 ft 358 kts 246°
2026-04-25 03:23 5.32330 -74.31750 14298 ft 344 kts 246°
2026-04-25 03:23 5.31354 -74.33884 14182 ft 330 kts 246°
2026-04-25 03:24 5.30419 -74.35938 14016 ft 318 kts 246°
2026-04-25 03:24 5.29396 -74.37871 13751 ft 311 kts 236°
2026-04-25 03:24 5.27975 -74.39474 13608 ft 307 kts 222°
2026-04-25 03:24 5.26280 -74.40777 13518 ft 308 kts 218°
2026-04-25 03:25 5.24564 -74.42061 13351 ft 307 kts 218°
2026-04-25 03:25 5.22882 -74.43329 13173 ft 306 kts 218°
2026-04-25 03:25 5.21181 -74.44612 12995 ft 306 kts 218°
2026-04-25 03:25 5.19485 -74.45889 12857 ft 305 kts 218°
2026-04-25 03:26 5.17776 -74.47150 12835 ft 305 kts 213°
2026-04-25 03:26 5.15814 -74.47956 12840 ft 308 kts 191°
2026-04-25 03:26 5.13676 -74.47954 12866 ft 311 kts 169°
2026-04-25 03:26 5.11580 -74.47381 12865 ft 313 kts 165°
2026-04-25 03:27 5.09488 -74.46778 12866 ft 313 kts 165°
2026-04-25 03:27 5.07398 -74.46175 12865 ft 312 kts 165°
2026-04-25 03:27 5.05309 -74.45574 12865 ft 313 kts 165°
2026-04-25 03:27 5.03243 -74.44983 12863 ft 312 kts 165°
2026-04-25 03:28 5.01156 -74.44387 12858 ft 312 kts 165°
2026-04-25 03:28 4.99069 -74.43790 12880 ft 312 kts 165°
2026-04-25 03:28 4.96980 -74.43192 12880 ft 312 kts 165°
2026-04-25 03:28 4.94917 -74.42603 12876 ft 301 kts 165°
2026-04-25 03:29 4.92957 -74.42002 12875 ft 291 kts 158°
2026-04-25 03:29 4.91201 -74.41014 12889 ft 286 kts 142°
2026-04-25 03:29 4.89827 -74.39654 12904 ft 274 kts 127°
2026-04-25 03:29 4.88702 -74.38157 12916 ft 271 kts 127°
2026-04-25 03:30 4.87580 -74.36672 12924 ft 270 kts 127°
2026-04-25 03:30 4.86450 -74.35173 12967 ft 269 kts 127°
2026-04-25 03:30 4.85310 -74.33668 12717 ft 273 kts 127°
2026-04-25 03:30 4.84165 -74.32165 12389 ft 270 kts 127°
2026-04-25 03:31 4.83035 -74.30673 12050 ft 267 kts 127°
2026-04-25 03:31 4.81918 -74.29194 11718 ft 264 kts 126°
2026-04-25 03:31 4.80813 -74.27733 11395 ft 262 kts 126°
2026-04-25 03:31 4.79718 -74.26285 11084 ft 259 kts 126°
2026-04-25 03:32 4.78646 -74.24868 10765 ft 249 kts 126°
2026-04-25 03:32 4.77621 -74.23513 10478 ft 239 kts 126°
2026-04-25 03:32 4.76665 -74.22249 10221 ft 223 kts 126°
2026-04-25 03:32 4.75761 -74.21053 9903 ft 208 kts 127°
2026-04-25 03:33 4.74924 -74.19947 9631 ft 191 kts 127°
2026-04-25 03:33 4.74144 -74.18915 9339 ft 181 kts 127°
2026-04-25 03:33 4.73396 -74.17926 9120 ft 176 kts 128°
2026-04-25 03:33 4.72654 -74.16951 8882 ft 175 kts 128°
2026-04-25 03:34 4.71922 -74.15986 8611 ft 173 kts 128°
2026-04-25 03:34 4.71203 -74.15026 8383 ft 170 kts 129°
2026-04-25 03:34 4.70579 -74.14201 8367 ft 117 kts 127°
2026-04-25 03:34 4.70260 -74.13780 8364 ft 45 kts 127°
2026-04-25 03:35 4.70099 -74.13656 8367 ft 25 kts 150°
2026-04-25 03:35 4.69951 -74.13593 8366 ft 15 kts 157°
2026-04-25 03:35 4.69853 -74.13545 8366 ft 16 kts 147°
2026-04-25 03:35 4.69823 -74.13531 8366 ft 1 kts 206°
2026-04-25 03:36 4.69825 -74.13544 8366 ft 5 kts 282°
2026-04-25 03:36 4.69806 -74.13602 8366 ft 11 kts 217°
2026-04-25 03:36 4.69756 -74.13658 8366 ft 11 kts 238°
2026-04-25 03:36 4.69698 -74.13706 8366 ft 10 kts 216°
2026-04-25 03:37 4.69674 -74.13725 8366 ft 0 kts 218°
2026-04-25 03:37 4.69670 -74.13728 8366 ft 1 kts 219°
2026-04-25 03:38 4.69669 -74.13729 8366 ft 0 kts 219°